"Time","Temp","Dewpoint","Humidity","Pressure","Direction","Speed","Gust","Precip","PrecipRate"
"00:04:57","39.3","31","72","30.44","330","0","0","0.00","0.00"
"00:09:56","39","31.1","72.8","30.44","330","0","0","0.00","0.00"
"00:14:56","38.8","30.9","73","30.44","330","0","0","0.00","0.00"
"00:19:57","38.5","30.8","73.7","30.44","330","0","0","0.00","0.00"
"00:24:57","38.3","30.7","74","30.44","330","0","0","0.00","0.00"
"00:29:56","38.1","30.8","74.9","30.44","330","0","0","0.00","0.00"
"00:34:59","37.8","30.9","76","30.44","330","0","0","0.00","0.00"
"00:39:58","37.5","30.9","76.8","30.44","330","0","0","0.00","0.00"
"00:44:57","37.3","30.2","75.3","30.44","330","0","0","0.00","0.00"
"00:49:56","37.1","30.2","76","30.44","330","0","0","0.00","0.00"
"00:54:59","37","30.4","76.6","30.44","330","0.2","2.4","0.00","0.00"
"00:59:57","36.9","30.5","77.4","30.44","330","0","0","0.00","0.00"
"01:04:59","36.7","30.5","78","30.44","330","0","0","0.00","0.00"
"01:09:59","36.7","30.5","78","30.44","330","0","0","0.00","0.00"
"01:14:59","36.6","30.4","78","30.44","330","0","0","0.00","0.00"
"01:19:59","36.6","30.6","78.7","30.44","330","0","0","0.00","0.00"
"01:24:57","36.5","30.6","79","30.44","330","0","0","0.00","0.00"
"01:29:59","36.5","30.6","79.1","30.44","330","0","0","0.00","0.00"
"01:34:59","36.3","30.7","80","30.44","330","0","0","0.00","0.00"
"01:39:58","36.1","30.5","80","30.44","330","0","0","0.00","0.00"
"01:44:57","36","30.5","80.4","30.44","330","0","0","0.00","0.00"
"01:49:56","35.9","30.6","81","30.44","330","0","0","0.00","0.00"
"01:54:55","35.9","30.6","81","30.44","330","0","0","0.00","0.00"
"01:59:58","35.8","30.5","81","30.44","330","0","0","0.00","0.00"
"02:04:57","35.7","30.4","81","30.44","330","0","0","0.00","0.00"
"02:09:57","35.5","30.4","81.8","30.44","330","0","0","0.00","0.00"
"02:14:56","35.3","30.4","82","30.44","330","0","0","0.00","0.00"
"02:19:58","35.1","30.3","82.5","30.44","330","0","0","0.00","0.00"
"02:24:57","34.9","30.3","83","30.44","330","0","0","0.00","0.00"
"02:29:59","34.6","30.1","83.2","30.44","330","0","0","0.00","0.00"
"02:34:58","34.4","29.8","83","30.43","330","0","0","0.00","0.00"
"02:39:57","34.3","29.7","83","30.43","330","0","0","0.00","0.00"
"02:44:55","34.2","29.6","83","30.43","330","0","0","0.00","0.00"
"02:49:58","34.1","29.5","83","30.43","330","0","0","0.00","0.00"
"02:54:56","34","29.4","83","30.43","330","0","0","0.00","0.00"
"02:59:59","34.1","29.5","83","30.43","330","0","0","0.00","0.00"
"03:04:59","33.9","29.5","83.5","30.43","330","0","0","0.00","0.00"
"03:09:59","33.7","29.4","84","30.43","330","0.9","2.4","0.00","0.00"
"03:14:59","33.5","29.1","83.5","30.43","330","0.8","2.4","0.00","0.00"
"03:19:57","33.5","28.9","83","30.43","330","0","1.2","0.00","0.00"
"03:24:58","33.4","29","83.9","30.43","330","0","0","0.00","0.00"
"03:29:56","33.1","28.8","84","30.43","330","0","0","0.00","0.00"
"03:34:57","32.9","28.6","84","30.43","330","0","0","0.00","0.00"
"03:39:56","32.7","28.5","84.5","30.43","330","0","0","0.00","0.00"
"03:44:57","32.4","28.4","85","30.43","330","0","0","0.00","0.00"
"03:49:59","32.3","28.3","85","30.42","330","0.3","1.2","0.00","0.00"
"03:54:56","32.3","28.3","85","30.42","330","0","0","0.00","0.00"
"03:59:56","32.5","28.2","84.1","30.42","330","0","0","0.00","0.00"
"04:04:59","32.5","28.2","84","30.42","330","0","0","0.00","0.00"
"04:09:59","32.3","28.2","84.5","30.42","330","0","0","0.00","0.00"
"04:14:57","32.1","28","84.7","30.42","330","0","1.2","0.00","0.00"
"04:19:59","31.8","27.8","85","30.42","330","0","1.2","0.00","0.00"
"04:24:57","31.6","27.6","85","30.42","330","0","1.2","0.00","0.00"
"04:29:58","31.4","27.5","85.3","30.43","330","0.1","1.2","0.00","0.00"
"04:34:56","31.3","27.6","86","30.43","330","0","0","0.00","0.00"
"04:39:58","31.2","27.6","86.4","30.43","330","0","0","0.00","0.00"
"04:44:56","31.1","27.7","87","30.43","330","0","0","0.00","0.00"
"04:49:58","31","27.3","86","30.43","330","0","0","0.00","0.00"
"04:54:59","30.9","27.2","86","30.43","330","0","0","0.00","0.00"
"04:59:57","30.8","27.1","86","30.44","330","0","0","0.00","0.00"
"05:04:59","30.6","27","86.2","30.44","330","0","0","0.00","0.00"
"05:09:59","30.5","27.1","87","30.44","330","0","0","0.00","0.00"
"05:14:57","30.4","27","87","30.44","330","0","0","0.00","0.00"
"05:19:59","30.4","27","87","30.44","330","0","0","0.00","0.00"
"05:24:56","30.3","26.9","87","30.44","330","0","0","0.00","0.00"
"05:29:58","30.2","27","87.5","30.44","330","0.6","2.4","0.00","0.00"
"05:34:59","30.3","27.2","88","30.44","330","1.6","2.4","0.00","0.00"
"05:39:57","30.3","27.2","88","30.44","330","0.9","2.4","0.00","0.00"
"05:44:59","30.3","27.2","87.8","30.45","330","0","0","0.00","0.00"
"05:49:56","30.3","27.1","87.5","30.45","330","0.5","2.4","0.00","0.00"
"05:54:57","30.3","27.2","88","30.45","330","0","0","0.00","0.00"
"05:59:59","30.1","27","88","30.45","330","0","0","0.00","0.00"
"06:04:56","29.9","26.8","88","30.45","330","0","0","0.00","0.00"
"06:09:57","29.8","26.7","88","30.45","330","0","0","0.00","0.00"
"06:14:59","29.6","26.5","88.1","30.45","330","0","0","0.00","0.00"
"06:19:57","29.5","26.7","89","30.45","330","0","0","0.00","0.00"
"06:24:59","29.4","26.5","88.9","30.45","330","0","0","0.00","0.00"
"06:29:56","29.3","26.6","89.5","30.46","330","0","0","0.00","0.00"
"06:34:58","29.4","26.7","89.6","30.46","330","0.1","1.2","0.00","0.00"
"06:39:56","29.5","26.8","89.5","30.46","330","0.1","1.2","0.00","0.00"
"06:44:57","29.5","26.7","89","30.47","330","0","0","0.00","0.00"
"06:49:59","29.4","26.6","89.2","30.47","330","0","0","0.00","0.00"
"06:54:57","29.3","26.6","89.5","30.47","330","0","0","0.00","0.00"
"06:59:59","29.2","26.6","89.6","30.47","330","0","0","0.00","0.00"
"07:04:57","29.1","26.4","89.5","30.47","330","0","0","0.00","0.00"
"07:09:57","29.1","26.5","90","30.47","330","0","0","0.00","0.00"
"07:14:59","29.2","26.6","90","30.47","330","0","0","0.00","0.00"
"07:19:56","29.3","26.7","90","30.47","330","0.1","1.2","0.00","0.00"
"07:24:57","29.5","26.9","90","30.47","330","0","0","0.00","0.00"
"07:29:59","29.9","27.3","90","30.48","330","0","1.2","0.00","0.00"
"07:34:58","30.3","27.7","90","30.48","330","0.5","2.4","0.00","0.00"
"07:39:57","31.1","28.3","89.3","30.48","330","0.2","1.2","0.00","0.00"
"07:44:57","31.9","28.8","88.2","30.48","330","0","0","0.00","0.00"
"07:49:58","32.7","29.3","87.3","30.48","330","0.2","2.4","0.00","0.00"
"07:54:58","33.7","29.8","85.3","30.48","330","0.5","2.4","0.00","0.00"
"07:59:56","34.6","30.2","83.6","30.49","332","1","3.6","0.00","0.00"
"08:04:57","35.6","30.5","81.5","30.49","333","0.7","2.4","0.00","0.00"
"08:09:57","36.6","31.2","80.4","30.49","332","1","3.6","0.00","0.00"
"08:14:58","37.5","31.2","77.7","30.49","331","1.9","3.6","0.00","0.00"
"08:19:56","38.3","31.7","76.8","30.49","328","0.8","3.6","0.00","0.00"
"08:24:58","39.2","31.9","74.8","30.49","328","1.5","4.8","0.00","0.00"
"08:29:58","39.8","32.2","74","30.50","302","1.2","2.4","0.00","0.00"
"08:34:59","40.6","32.7","73.4","30.50","294","0.3","2.4","0.00","0.00"
"08:39:57","41.4","33","71.7","30.50","294","0.8","2.4","0.00","0.00"
"08:44:59","42.1","32.9","69.7","30.50","298","1.6","4.8","0.00","0.00"
"08:49:56","42.9","33.8","70","30.50","317","0.6","4.8","0.00","0.00"
"08:54:57","43.8","34","68.1","30.50","324","0.6","4.6","0.00","0.00"
"08:59:58","44.5","33.5","65","30.50","324","1.3","3.6","0.00","0.00"
"09:04:59","45","33.9","64.8","30.50","322","0.6","2.4","0.00","0.00"
"09:09:59","45.7","34.2","64.1","30.50","320","1","2.4","0.00","0.00"
"09:14:57","46.4","34.3","62.5","30.51","320","0.9","2.4","0.00","0.00"
"09:19:57","47.1","34.2","60.6","30.51","319","1.3","3.6","0.00","0.00"
"09:24:58","47.5","34.3","60.2","30.51","319","1.3","3.5","0.00","0.00"
"09:29:58","48.1","34.4","58.8","30.51","320","1","3.6","0.00","0.00"
"09:34:58","48.6","33.7","56.4","30.51","322","0.5","2.4","0.00","0.00"
"09:39:59","49.3","34.4","56.3","30.51","57","1.8","3.6","0.00","0.00"
"09:44:59","49.8","34","54.4","30.51","97","2.3","6","0.00","0.00"
"09:49:55","49.6","32.8","52.2","30.51","88","1.6","3.6","0.00","0.00"
"09:54:56","49.3","32.3","51.9","30.51","103","3.2","4.8","0.00","0.00"
"09:59:56","49.6","33.1","52.9","30.51","100","3.4","6","0.00","0.00"
"10:04:56","50.4","33.9","53.1","30.51","11","1.6","4.8","0.00","0.00"
"10:09:59","51","34.2","52.4","30.51","67","1.3","3.6","0.00","0.00"
"10:14:56","51.6","34.6","52.2","30.51","97","1.5","3.6","0.00","0.00"
"10:19:57","51.6","34.1","51.1","30.51","74","2.4","6","0.00","0.00"
"10:24:57","51.8","34.1","50.9","30.51","102","2.2","6","0.00","0.00"
"10:29:57","52","33.8","49.8","30.51","105","1.7","4.8","0.00","0.00"
"10:34:57","52.9","33.6","47.9","30.51","39","2","4.8","0.00","0.00"
"10:39:58","52.7","32.4","45.8","30.51","82","2.9","7.2","0.00","0.00"
"10:44:58","52.9","32.2","45.3","30.51","66","2.4","4.8","0.00","0.00"
"10:49:59","53.6","33.4","46.2","30.51","32","2.3","6","0.00","0.00"
"10:54:59","54.2","33.8","45.9","30.51","23","3","8.4","0.00","0.00"
"10:59:59","54.1","32.4","43.6","30.51","37","1.8","5.8","0.00","0.00"
"11:04:56","54","33.4","45.6","30.51","6","2.1","6","0.00","0.00"
"11:09:56","54.7","33.2","44.2","30.51","63","3.2","7.2","0.00","0.00"
"11:14:57","54.4","31.4","41.4","30.51","26","2.3","6","0.00","0.00"
"11:19:58","54.8","32.7","43.1","30.51","71","2.6","5.8","0.00","0.00"
"11:24:59","54.9","33.7","44.6","30.51","67","1.9","7.2","0.00","0.00"
"11:29:56","55.1","32.5","42.2","30.51","186","1.4","3.6","0.00","0.00"
"11:34:57","55.5","31.4","40","30.51","96","3.2","8.4","0.00","0.00"
"11:39:58","55.2","31.5","40.5","30.51","138","2.9","9.6","0.00","0.00"
"11:44:59","56","33.1","41.9","30.51","86","3","9.2","0.00","0.00"
"11:49:59","55.9","32.6","41","30.51","83","3.9","8.4","0.00","0.00"
"11:54:56","56.3","32","39.6","30.51","42","1.9","4.8","0.00","0.00"
"11:59:57","55.9","30.4","37.7","30.51","306","3.2","6","0.00","0.00"
"12:04:58","56.7","33.6","41.7","30.50","139","3.2","7.2","0.00","0.00"
"12:09:56","57.1","32.4","39.1","30.50","98","3.4","7.2","0.00","0.00"
"12:14:58","56.7","31.9","38.8","30.50","69","2","6","0.00","0.00"
"12:19:58","57.1","33.3","40.5","30.50","337","2.1","8.4","0.00","0.00"
"12:24:59","57","30.7","36.7","30.50","69","3","9.6","0.00","0.00"
"12:29:56","56.9","32.2","39.3","30.50","28","2.5","7.2","0.00","0.00"
"12:34:57","57.9","33.8","40.1","30.50","17","1.9","6.9","0.00","0.00"
"12:39:58","57.9","32.6","38.3","30.50","93","1.6","4.8","0.00","0.00"
"12:44:59","57.9","32.4","38.1","30.50","343","2.6","6","0.00","0.00"
"12:49:56","58.4","34","39.8","30.49","359","3.5","8.4","0.00","0.00"
"12:54:56","58.2","32","37","30.49","70","3.6","8.4","0.00","0.00"
"12:59:56","58.3","32.5","37.6","30.49","17","3.4","7.2","0.00","0.00"
"13:04:57","58.6","34.1","39.7","30.49","78","4.2","7.2","0.00","0.00"
"13:09:56","58.5","32.7","37.5","30.49","96","3.7","8.4","0.00","0.00"
"13:14:57","58.2","32.3","37.5","30.49","124","3.4","8.4","0.00","0.00"
"13:19:58","57.7","32.1","37.8","30.49","225","2.9","7.2","0.00","0.00"
"13:24:59","58.3","33","38.5","30.49","235","4.6","7.2","0.00","0.00"
"13:29:56","58.5","32.7","37.8","30.49","254","3.1","4.8","0.00","0.00"
"13:34:56","59","33.8","38.8","30.48","169","2.4","6","0.00","0.00"
"13:39:58","59.3","33.8","38.4","30.48","214","2.1","7.2","0.00","0.00"
"13:44:59","60","34.6","38.4","30.48","339","3.8","7.2","0.00","0.00"
"13:49:56","59.3","31.9","35.5","30.48","101","4.1","10.8","0.00","0.00"
"13:54:56","59.3","32.9","36.9","30.48","122","4.4","10.4","0.00","0.00"
"13:59:57","59.6","32.8","36.3","30.48","102","4.2","7.2","0.00","0.00"
"14:04:57","60.3","34.5","38","30.48","159","2.6","6","0.00","0.00"
"14:09:56","60.2","32.6","35.3","30.48","115","4.1","7.2","0.00","0.00"
"14:14:58","59.8","32.6","35.9","30.48","29","2.9","5.8","0.00","0.00"
"14:19:59","59.6","33.7","38","30.48","209","2.5","6","0.00","0.00"
"14:24:59","60.1","34.5","38.4","30.48","87","3","7.2","0.00","0.00"
"14:29:56","60.5","33.6","36.3","30.48","67","2.7","7.2","0.00","0.00"
"14:34:57","60.3","31.9","34.3","30.47","198","4","7.2","0.00","0.00"
"14:39:58","60.6","33.8","36.5","30.47","218","3.1","6","0.00","0.00"
"14:44:59","60.5","33.3","35.9","30.47","333","1.9","4.8","0.00","0.00"
"14:49:56","60.8","33","35.2","30.46","93","3.9","8.4","0.00","0.00"
"14:54:57","60.2","31.7","34.1","30.46","74","2.6","4.8","0.00","0.00"
"14:59:57","60","32.2","35.2","30.46","87","2.7","7.2","0.00","0.00"
"15:04:58","60.3","32.4","34.8","30.46","71","3.7","7.2","0.00","0.00"
"15:09:57","60.2","32.6","35.4","30.46","114","3.1","6","0.00","0.00"
"15:14:59","60.3","30.7","32.6","30.46","104","2.5","4.8","0.00","0.00"
"15:19:59","60.9","33.2","35.3","30.46","63","2.8","8.4","0.00","0.00"
"15:24:56","61.5","33.8","35.4","30.46","53","3.2","12","0.00","0.00"
"15:29:57","61.4","31.3","32.1","30.46","102","2.2","6","0.00","0.00"
"15:34:57","60.9","33","35.1","30.45","114","3.7","8.4","0.00","0.00"
"15:39:58","61","31.3","32.6","30.45","147","3.3","8.1","0.00","0.00"
"15:44:59","61.4","33","34.4","30.45","188","1.6","5.8","0.00","0.00"
"15:49:59","61.5","32.2","33.1","30.45","88","2.1","3.6","0.00","0.00"
"15:54:56","61.8","33","34","30.45","354","3.3","6","0.00","0.00"
"15:59:56","61.6","32.1","32.9","30.45","16","2.4","4.8","0.00","0.00"
"16:04:56","61.9","32.9","33.7","30.45","45","2.8","7.2","0.00","0.00"
"16:09:59","61.1","30.8","31.8","30.45","116","2.9","6","0.00","0.00"
"16:14:57","61.1","31.7","33","30.45","116","2.1","3.6","0.00","0.00"
"16:19:57","61.4","31.8","32.8","30.44","42","3.3","7.2","0.00","0.00"
"16:24:57","61.9","31.4","31.7","30.44","65","2.8","6","0.00","0.00"
"16:29:58","61.8","31.5","32","30.44","63","2.6","6","0.00","0.00"
"16:34:58","61.6","31.5","32.1","30.43","23","1.7","3.6","0.00","0.00"
"16:39:59","61.6","31.1","31.5","30.43","20","0.8","3.6","0.00","0.00"
"16:44:56","61.5","32.3","33.3","30.43","98","3.1","7.2","0.00","0.00"
"16:49:56","61.9","32.8","33.5","30.43","74","2.5","7.2","0.00","0.00"
"16:54:57","61.5","31.1","31.7","30.43","101","3.1","6.9","0.00","0.00"
"16:59:57","61.2","32","33.2","30.43","90","4.1","7.2","0.00","0.00"
"17:04:58","61.2","31.7","32.9","30.43","82","3.1","6","0.00","0.00"
"17:09:57","61.3","29.9","30.4","30.43","68","2.5","5.8","0.00","0.00"
"17:14:58","61.3","30.6","31.4","30.43","76","2.4","4.8","0.00","0.00"
"17:19:59","61.2","30.4","31.1","30.42","42","2.5","6","0.00","0.00"
"17:24:59","61.5","30.3","30.7","30.42","40","1.3","3.6","0.00","0.00"
"17:29:56","61.8","30","29.9","30.42","350","2","7.2","0.00","0.00"
"17:34:57","62.1","29.8","29.5","30.42","345","0.8","3.6","0.00","0.00"
"17:39:58","62.5","30.7","30.1","30.42","340","1.3","3.6","0.00","0.00"
"17:44:59","62.5","31.6","31.2","30.42","12","1.4","7.2","0.00","0.00"
"17:49:56","62.5","30.8","30.3","30.42","339","2.5","6.9","0.00","0.00"
"17:54:56","62.4","30.9","30.5","30.42","354","3","6","0.00","0.00"
"17:59:56","62.1","31.3","31.3","30.43","96","1.9","4.8","0.00","0.00"
"18:04:57","61.8","31.1","31.3","30.43","86","1.5","6","0.00","0.00"
"18:09:56","61.4","29.5","29.9","30.43","96","2.6","4.8","0.00","0.00"
"18:14:58","61.1","30.1","30.8","30.43","77","2.1","4.8","0.00","0.00"
"18:19:58","60.7","29.2","30.3","30.43","79","1.8","3.6","0.00","0.00"
"18:24:58","60.3","28.3","29.5","30.43","356","1.8","3.6","0.00","0.00"
"18:29:58","60","29.5","31.3","30.43","279","1.9","3.6","0.00","0.00"
"18:34:58","59.8","28.6","30.4","30.43","279","0.7","2.4","0.00","0.00"
"18:39:59","59.7","28.4","30.2","30.43","282","0.5","3.6","0.00","0.00"
"18:44:59","59.7","29.7","31.9","30.43","282","0.8","2.4","0.00","0.00"
"18:49:59","59.4","29.4","31.9","30.43","296","1.3","3.6","0.00","0.00"
"18:54:59","59.4","28.9","31.2","30.43","305","2","4.8","0.00","0.00"
"18:59:59","59.3","27.8","30","30.43","306","0.2","1.2","0.00","0.00"
"19:04:56","59.1","28.5","31.1","30.43","305","1.3","3.6","0.00","0.00"
"19:09:59","58.8","28.2","31","30.43","304","1","2.4","0.00","0.00"
"19:14:56","58.4","28","31.2","30.43","317","0.8","4.8","0.00","0.00"
"19:19:56","58.1","28.5","32.3","30.43","347","1.7","4.6","0.00","0.00"
"19:24:57","57.7","28.5","32.7","30.43","329","0.2","2.4","0.00","0.00"
"19:29:58","57.3","29.2","34","30.43","329","0.1","1.2","0.00","0.00"
"19:34:58","56.9","29.2","34.5","30.43","329","0.7","2.4","0.00","0.00"
"19:39:56","56.4","29.3","35.3","30.43","329","0","1.2","0.00","0.00"
"19:44:57","56","29.4","36","30.43","329","0","0","0.00","0.00"
"19:49:59","55.5","29.2","36.4","30.43","329","0","0","0.00","0.00"
"19:54:59","54.9","30.2","38.7","30.43","329","0","0","0.00","0.00"
"19:59:59","54.3","30.6","40.2","30.43","329","0","0","0.00","0.00"
"20:04:59","53.7","31.3","42.4","30.43","329","0.1","2.4","0.00","0.00"
"20:09:59","53","31.9","44.5","30.43","329","0.4","2.3","0.00","0.00"
"20:14:57","52.4","31.4","44.6","30.43","329","0","0","0.00","0.00"
"20:19:58","51.8","30.8","44.5","30.43","87","0.7","3.6","0.00","0.00"
"20:24:59","51.2","31.1","46","30.43","93","0.9","2.4","0.00","0.00"
"20:29:56","50.9","29.8","44.1","30.43","93","0.7","2.4","0.00","0.00"
"20:34:57","51.2","28.8","41.9","30.43","96","0.3","2.3","0.00","0.00"
"20:39:59","51.4","29.6","43","30.43","96","0","1.2","0.00","0.00"
"20:44:57","51.3","29.1","42.2","30.44","98","0.3","2.4","0.00","0.00"
"20:49:59","51.2","28.1","40.5","30.44","99","0.6","2.4","0.00","0.00"
"20:54:56","51.4","29","41.9","30.44","99","0.4","2.4","0.00","0.00"
"20:59:57","51.2","28.3","40.9","30.45","110","1.7","3.6","0.00","0.00"
"21:04:58","51.4","27.8","39.9","30.45","137","1","3.5","0.00","0.00"
"21:09:57","51.4","29","41.9","30.45","126","2.7","8.4","0.00","0.00"
"21:14:58","51.3","29.1","42.2","30.46","150","2.3","6","0.00","0.00"
"21:19:55","51.5","28.9","41.5","30.46","155","2.5","6","0.00","0.00"
"21:24:57","51.6","29","41.6","30.46","162","1.9","5.8","0.00","0.00"
"21:29:58","51.5","28.9","41.7","30.46","163","1.5","3.6","0.00","0.00"
"21:34:59","51.3","29","42","30.46","163","0.8","2.4","0.00","0.00"
"21:39:58","51","28.7","42","30.46","163","0.5","3.6","0.00","0.00"
"21:44:56","50.7","29","43","30.46","163","1","3.6","0.00","0.00"
"21:49:58","50.4","29.3","44","30.46","163","1.3","3.6","0.00","0.00"
"21:54:59","49.9","29.9","45.9","30.46","163","1.2","3.6","0.00","0.00"
"21:59:57","49.5","29.8","46.5","30.47","163","1.3","3.6","0.00","0.00"
"22:04:58","49.1","29.2","46","30.47","163","0.8","3.6","0.00","0.00"
"22:09:57","48.9","29.2","46.2","30.47","163","1","3.6","0.00","0.00"
"22:14:58","48.8","29.7","47.6","30.47","163","1.2","3.6","0.00","0.00"
"22:19:59","48.6","29.6","47.6","30.47","162","0.5","2.4","0.00","0.00"
"22:24:57","48.2","30.9","51","30.47","161","0","0","0.00","0.00"
"22:29:58","47.6","30.3","50.8","30.47","161","0","0","0.00","0.00"
"22:34:59","47.2","29.9","50.9","30.46","161","0","0","0.00","0.00"
"22:39:57","46.6","30.4","53.1","30.46","161","0","0","0.00","0.00"
"22:44:59","46","30.3","54","30.46","161","0","0","0.00","0.00"
"22:49:57","45.6","29.5","53.2","30.46","161","0","0","0.00","0.00"
"22:54:58","45.3","30.6","56.3","30.46","161","0","1.2","0.00","0.00"
"22:59:56","45","31.2","58.1","30.46","161","0","0","0.00","0.00"
"23:04:57","44.5","31.2","59.3","30.46","161","0","0","0.00","0.00"
"23:09:56","44","30.6","59.2","30.46","161","0.2","1.2","0.00","0.00"
"23:14:58","43.5","30.8","60.6","30.46","161","0","1.2","0.00","0.00"
"23:19:56","43.1","30.7","61.4","30.46","161","0","1.2","0.00","0.00"
"23:24:58","42.6","31.1","63.6","30.46","161","0","0","0.00","0.00"
"23:29:57","42.2","30.7","63.5","30.46","161","0","0","0.00","0.00"
"23:34:59","41.8","30.8","64.6","30.46","161","0","0","0.00","0.00"
"23:39:57","41.4","31","66.4","30.46","161","0","0","0.00","0.00"
"23:44:58","41.1","30.3","65.4","30.46","161","0","1.2","0.00","0.00"
